Alexandria, Egypt

5:34 AM EET on December 17, 2017 (GMT +0200)
Alexandria

Weather History for HEAX - September, 2013

Change the Weather History Date:

Tuesday, September 3, 2013

  Actual Average Record
Temperature  
Mean Temperature 82 °F -  
Max Temperature 88 °F 82 °F 95 °F (2014)
Min Temperature 75 °F 69 °F 66 °F (2000)
Cooling Degree Days 16    
Growing Degree Days 32 (Base 50)    
Moisture  
Dew Point 69 °F    
Average Humidity 66    
Maximum Humidity 89    
Minimum Humidity 46    
Precipitation  
Precipitation 0.00 in 0.00 in - ()
Sea Level Pressure  
Sea Level Pressure 29.93 in    
Wind  
Wind Speed 11 mph ()    
Max Wind Speed 18 mph    
Max Gust Speed -    
Visibility 6.2 miles    
Events      
Averages and records for this station are not official NWS values.
T = Trace of Precipitation, MM = Missing Value Source: Averaged Metar Reports

Daily Weather History Graph

Daily Weather History Graph

Search for Another Location

Airport or City:

Trip Planner

Search our weather history database for the weather conditions in past years. The results will help you decide how hot, cold, wet, or windy it might be!

Date:

Astronomy

Sep. 03, 2013 Rise Set
Actual Time 5:37 AM EET 6:21 PM EET
Civil Twilight 5:12 AM EET 6:45 PM EET
Nautical Twilight 4:43 AM EET 7:14 PM EET
Astronomical Twilight 4:14 AM EET 7:44 PM EET
Moon 3:36 AM EET (9/3) 4:54 PM EET (9/3)
Length of Visible Light 13h 33m
Length of Day
12h 43m
Waning Crescent, 4% of the Moon is Illuminated
Sep 3
Waning Crescent
Sep 5
New
Sep 12
First Quarter
Sep 19
Full
Sep 27
Last Quarter

Hourly Weather History & Observations

Time (EET) Temp. Heat Index Dew Point Humidity Pressure Visibility Wind Dir Wind Speed Gust Speed Precip Events Conditions
12:00 AM 77.0 °F - 71.6 °F 83% 29.95 in 6.2 mi NNW 13.8 mph - N/A   Scattered Clouds
1:00 AM 75.2 °F - 69.8 °F 83% 29.92 in 6.2 mi NNW 10.4 mph - N/A   Scattered Clouds
2:00 AM 75.2 °F - 69.8 °F 83% 29.92 in 6.2 mi NNW 9.2 mph - N/A   Scattered Clouds
3:00 AM 75.2 °F - 71.6 °F 89% 29.92 in 6.2 mi NNW 6.9 mph - N/A   Scattered Clouds
4:00 AM 75.2 °F - 71.6 °F 89% 29.92 in 6.2 mi NNW 8.1 mph - N/A   Scattered Clouds
5:00 AM 77.0 °F - 71.6 °F 83% 29.89 in 6.2 mi WNW 10.4 mph - N/A   Scattered Clouds
6:00 AM 78.8 °F - 71.6 °F 78% 29.92 in 6.2 mi NW 5.8 mph - N/A   Partly Cloudy
7:00 AM 80.6 °F 83.9 °F 69.8 °F 70% 29.95 in - NNW 9.2 mph - N/A   Clear
8:00 AM 82.4 °F 86.3 °F 69.8 °F 66% 29.95 in - NNW 10.4 mph - N/A   Clear
9:00 AM 84.2 °F 88.4 °F 69.8 °F 62% 29.95 in - NNW 13.8 mph - N/A   Clear
10:00 AM 86.0 °F 89.4 °F 68.0 °F 55% 29.95 in - NNW 12.7 mph - N/A   Clear
11:00 AM 86.0 °F 90.4 °F 69.8 °F 58% 29.95 in - NNW 13.8 mph - N/A   Clear
12:00 PM 87.8 °F 91.4 °F 68.0 °F 52% 29.95 in - NW 12.7 mph - N/A   Clear
1:00 PM 87.8 °F 92.6 °F 69.8 °F 55% 29.92 in - NW 15.0 mph - N/A   Clear
2:00 PM 87 °F - 69 °F 46% 29.93 in 6 mi NNW 13.8 mph - -  
2:00 PM 87.8 °F 92.6 °F 69.8 °F 55% 29.92 in - NNW 13.8 mph - N/A   Clear
3:00 PM 86.0 °F 89.4 °F 68.0 °F 55% 29.92 in - NNW 18.4 mph - N/A   Clear
4:00 PM 86.0 °F 90.4 °F 69.8 °F 58% 29.92 in - NNW 18.4 mph - N/A   Clear
5:00 PM 84.2 °F 87.3 °F 68.0 °F 58% 29.92 in - NW 16.1 mph - N/A   Clear
6:00 PM 82.4 °F 85.4 °F 68.0 °F 62% 29.92 in - NW 15.0 mph - N/A   Clear
7:00 PM 80.6 °F 82.7 °F 66.2 °F 61% 29.92 in - NW 13.8 mph - N/A   Clear
8:00 PM 79 °F - 67 °F 57% 29.92 in 6 mi NW 13.8 mph - -  
8:00 PM 80.6 °F 82.7 °F 66.2 °F 61% 29.92 in - NW 13.8 mph - N/A   Clear
9:00 PM 78.8 °F - 66.2 °F 65% 29.92 in - NNW 15.0 mph - N/A   Clear
10:00 PM 78.8 °F - 66.2 °F 65% 29.92 in - NW 13.8 mph - N/A   Clear
11:00 PM 78.8 °F - 66.2 °F 65% 29.92 in - NW 12.7 mph - N/A   Clear